Other Public Products
Issued by NWS Charleston, SC

Current Version | Previous Version | Graphics & Text | Print | Product List | Glossary On
Versions: 1 2 3 4 5 6 7 8 9 10 11 12 13 14 15 16 17 18 19 20 21 22 23 24 25 26 27 28 29 30 31 32 33 34 35 36 37 38 39 40 41 42 43 44 45 46 47 48 49 50
000
FPUS82 KCHS 140326
OPUCHS

TEST...KCHS/KSAV Gateway Observations...TEST
National Weather Service Charleston SC
1000 PM EST WED DEC 13 2017

NOTE: "fair" indicates few or no clouds below 12,000 feet with no
significant weather and/or obstructions to visibility.

SCZ050-WAZ558-NCZ071-TXZ119-213-PAZ071-DCZ001-FLZ074-172-MI076-
NYZ176-178-MAZ016-IL014-TNZ027-NJZ106-GAZ044-MD014-140400-

...Gateway Observations for Charleston International...

CITY           SKY/WX    TMP DP  RH WIND       PRES   REMARKS
Chas Airport   CLEAR     37  32  82 SW8       29.91F WCI  31
Seattle        CLOUDY    43  37  79 N6        30.36F
Charlotte      PTCLDY    41  17  38 SW15G25   29.75S
Dallas DFW     CLEAR     58  28  32 SW3       29.89R
Dallas Love    PTCLDY    57  30  35 N3        29.90R
Philladelphia  LGT SNOW  27  20  75 S14       29.71R WCI  16
Wash National  CLOUDY    35  13  40 S10       29.67R WCI  27
Baltimore      CLOUDY    30  21  69 CALM      29.66F
Miami          CLEAR     55  40  56 CALM      30.10S
Detroit        LGT SNOW  25  22  88 NE12      29.41S VSB 1   WCI  14
Newark         CLOUDY    27   5  39 W12       29.68S WCI  17
Laguardia      CLOUDY    28   6  39 W16       29.68R WCI  16
J F K          CLOUDY    28   8  43 W13       29.69S WCI  17
Boston Logan   CLEAR     23   9  55 W22G31    29.52S WCI   8
Ft. Lauderdale CLEAR     55  41  59 CALM      30.09S
Chicago O`Hare FLURRIES  29  20  69 NW21G26   29.63R WCI  16
Chicago Midway FLURRIES  29  21  72 NW21      29.63R WCI  16
Houston Bush   CLOUDY    51  37  58 SW3       29.99F
Houston Hobby  CLOUDY    48  38  68 S5        29.99F
Nashville      CLEAR     46  21  37 SW6       29.77R
Atlanta        PTCLDY    43  20  39 W8        29.86R

$$

GAZ044-118-TXZ119-213-NCZ071-DCZ001-MDZ014-506-PAZ021-071-NJZ106-
NYZ176-178-MAZ106-OHZ011-021-055-MIZ076-KYZ091-ILZ014-INZ047-
MNZ060-ONZ431-140400-

...Gateway Observations for Savannah International...

CITY           SKY/WX    TMP DP  RH WIND       PRES   REMARKS
Savannah Arpt  CLEAR     42  27  55 SW8       29.95F
Atlanta        PTCLDY    43  20  39 W8        29.86R
Charlotte      PTCLDY    41  17  38 SW15G25   29.75S
Dallas DFW     CLEAR     58  28  32 SW3       29.89R
Houston Bush   CLOUDY    51  37  58 SW3       29.99F
Wash National  CLOUDY    35  13  40 S10       29.67R WCI  27
Wash Dulles    CLOUDY    33  11  39 S6        29.64R WCI  28
Baltimore      CLOUDY    30  21  69 CALM      29.66F
Philadelphia   LGT SNOW  27  20  75 S14       29.71R WCI  16
Newark         CLOUDY    27   5  39 W12       29.68S WCI  17
Laguardia      CLOUDY    28   6  39 W16       29.68R WCI  16
J F K          CLOUDY    28   8  43 W13       29.69S WCI  17
Boston         CLEAR     23   9  55 W22G31    29.52S WCI   8
Pittsburg      LGT SNOW  24  21  88 S7        29.41F FOG     WCI  16
Akron          LGT SNOW  22  18  85 S12       29.38F VSB 1   WCI  10
Cleveland      LGT SNOW  23  20  88 S13       29.39F FOG     WCI  11
Cincinnati     CLOUDY    42  33  70 W28G41    29.52R
Columbus       CLOUDY    36  22  57 W20G25    29.41R WCI  25
Detroit        LGT SNOW  25  22  88 NE12      29.41S VSB 1   WCI  14
Chicago O`Hare FLURRIES  29  20  69 NW21G26   29.63R WCI  16
Minneapolis    PTCLDY    20  15  81 N9        29.91S WCI   9
Indianapolis   CLOUDY    37  26  64 W30G40    29.58R WCI  24
Toronto Canada LGT SNOW  14   9  79 NE7       29.59F WCI   4

$$




USA.gov is the U.S. government's official web portal to all federal, state and local government web resources and services.